Location: Kitchener
(43.4500°N, 80.5000°W)
Time: 01:24:02
(UTC-04:00)

Daily predictions for brighter satellites

Satellite Brightness Start Highest point End
(mag) Time Altitude Azimuth Time Altitude Azimuth Time Altitude Azimuth
ATLAS 3B R/B 4.3 01:26:04 30° NNE 01:26:04 30° NNE 01:29:29 10° NNE
Cosmos 1980 Rocket 4.3 02:48:30 22° NNE 02:48:30 22° NNE 02:50:27 10° NNE
CENTAUR R/B 4.0 02:56:30 33° NE 02:56:30 33° NE 03:00:16 10° NE
Cosmos 2263 Rocket 4.3 02:53:47 10° N 02:56:26 22° NNE 02:56:26 22° NNE
SL-16 R/B 3.4 03:33:25 44° N 03:33:25 44° N 03:37:33 10° N
ARIANE 5 R/B 4.2 03:31:14 10° NNE 03:34:00 30° NE 03:34:00 30° NE
Cosmos 2322 Rocket 3.0 03:58:56 46° NNE 03:58:56 46° NNE 04:02:52 10° NNE
SL-16 R/B 2.9 04:04:10 50° NNE 04:04:10 50° NNE 04:08:20 10° NNE
Resurs 1-4 Rocket 3.0 04:04:37 10° NNE 04:08:11 44° N 04:08:11 44° N
CZ-2D R/B 2.8 04:06:45 10° N 04:10:48 50° N 04:10:48 50° N
Okean O Rocket 3.9 04:11:57 10° NE 04:15:05 19° E 04:16:32 16° ESE
FALCON 9 R/B 4.4 04:17:39 48° SW 04:21:04 57° S 05:00:41 10° ESE
Lacrosse 4 Rocket4.404:26:46SE04:26:46SE04:17:01NNW
Cosmos 2184 Rocket 4.3 04:18:25 10° N 04:24:35 62° E 04:28:02 27° SSE
Cosmos 1455 Rocket 4.1 04:22:36 10° N 04:26:43 43° ENE 04:26:43 43° ENE
Cosmos 2360 Rocket 2.3 04:27:51 68° ESE 04:27:55 69° ESE 04:33:33 10° NNE
Gblst 52 Del rocket 4.4 04:27:41 61° NNW 04:28:29 69° NNE 04:34:35 10° ESE
Cosmos 1980 Rocket 3.9 04:30:15 20° NW 04:30:15 20° NW 04:33:38 10° N
ADEOS II 3.9 04:29:13 10° NE 04:33:43 28° E 04:37:44 12° SSE
Cosmos 1975 Rocket 4.4 04:36:00 31° N 04:36:00 31° N 04:38:23 10° N
ADEOS Rocket 2.9 04:32:16 10° N 04:37:12 59° NW 04:37:12 59° NW
Cosmos 1812 4.4 04:40:01 30° N 04:40:01 30° N 04:42:03 10° N
Cosmos 2263 Rocket 4.3 04:37:25 10° NW 04:38:04 13° NW 04:38:04 13° NW
Cosmos 1340 3.8 04:44:18 42° ENE 04:44:18 42° ENE 04:47:12 10° NNE
ATLAS 5 CENTAUR R/B 4.2 04:39:09 10° NNW 04:44:15 30° NE 04:49:45 10° E
CENTAUR R/B 3.5 04:43:40 32° NW 04:44:42 34° NW 04:51:05 10° NNE
SL-08 ROCKET BODY 4.2 04:42:52 10° NNW 04:48:44 73° W 04:49:21 66° SW
USA 215 3.4 04:42:42 10° ESE 04:49:14 75° NE 04:55:47 10° NW
CZ-2D R/B 4.2 04:48:02 10° N 04:51:22 46° NNW 04:51:22 46° NNW
Cosmos 1536 Rocket 4.1 04:53:02 48° SE 04:53:55 59° E 04:58:20 10° NNE
COBE Rocket 4.3 04:51:56 10° N 04:56:32 51° WNW 04:56:32 51° WNW
Cosmos 2154 Rocket 4.4 04:52:25 10° N 04:58:34 60° E 05:04:40 10° SSE
Cosmos 2333 Rocket 4.1 04:54:54 10° SSE 04:59:28 26° ESE 05:04:05 10° NE
Cosmos 1743 4.1 04:56:42 10° N 05:00:21 38° ENE 05:03:58 10° SSE
Spot 3 4.5 04:57:24 10° N 05:02:44 74° WNW 05:03:47 57° SW
Cosmos 2322 3.6 05:04:46 54° SW 05:05:58 71° WNW 05:11:43 10° NNE
CZ-4B R/B 3.1 05:03:57 10° NNE 05:07:31 57° E 05:08:01 51° SE
Cosmos 2327 Rocket 4.4 05:04:12 10° NNW 05:10:24 63° W 05:13:53 27° SSW
Meteor 1-18 Rocket 4.2 05:12:25 48° SW 05:13:39 59° WNW 05:19:12 10° N
ARIANE 5 R/B 4.0 05:11:09 10° NNW 05:14:22 22° NW 05:14:22 22° NW
SL-16 R/B 4.3 05:18:29 14° WNW 05:18:29 14° WNW 05:19:53 10° NW
Cosmos 1610 Rocket 4.4 05:11:00 10° N 05:17:15 76° W 05:23:33 10° S
EO 1 Del DPAF 3.4 05:13:44 10° SSE 05:17:34 73° ENE 05:21:26 10° N
Meteor 1-12 Rocket 4.2 05:12:50 10° NNW 05:18:25 59° W 05:22:22 19° S
Nadezhda 1 Rocket 3.8 05:16:39 29° SSW 05:19:52 72° W 05:25:57 10° N
Meteor 2-13 Rocket 4.4 05:14:59 10° NNW 05:21:03 62° W 05:27:04 10° S
Cosmos 1844 4.1 05:18:52 10° NNW 05:24:38 68° ENE 05:30:18 10° SE
Cosmos 2333 4.2 05:21:51 25° SSW 05:25:13 79° ESE 05:30:57 10° NNE
Cosmos 1570 Rocket 3.9 05:24:16 34° SSW 05:26:34 78° WNW 05:31:49 10° NNE
Cosmos 1898 Rocket 4.3 05:22:40 10° NNW 05:27:47 54° ENE 05:32:50 10° SE
Meteor 1-13 Rocket 4.3 05:23:37 11° S 05:28:51 79° E 05:34:29 10° NNE
Okean 1 4.0 05:31:57 36° WNW 05:31:57 36° WNW 05:35:30 10° N
BREEZE M DEB (TANK) 3.9 05:17:26 10° WNW 05:32:04 72° NNE 05:36:13 10° ESE
CZ-4B DEB 4.2 05:26:48 10° NNE 05:32:24 87° ESE 05:37:41 11° SSW
MOS 1 Rocket 3.6 05:28:09 10° N 05:32:38 44° WNW 05:33:36 38° WSW
CZ-4B R/B 3.2 05:27:18 10° NNE 05:32:58 88° E 05:38:17 11° SSW
Cosmos 2074 Rocket 4.4 05:27:30 10° NNW 05:33:13 38° W 05:35:49 27° SW
Tiangong 2 2.1 05:34:35 33° SSE 05:34:35 33° SSE 05:36:51 10° SE
Cosmos 2341 Rocket 4.0 05:33:03 10° N 05:39:20 89° W 05:45:33 10° S
IRS-1C Rocket 4.0 05:36:42 10° N 05:41:57 72° WNW 05:46:22 15° SSW
Cosmos 2322 Rocket 3.9 05:40:45 15° WNW 05:42:08 16° NW 05:45:31 10° N
Cosmos 1238 Rocket 1.9 05:42:00 57° SW 05:42:25 68° W 05:45:24 10° N
ERS-2 3.1 05:40:04 10° NNE 05:43:40 47° E 05:47:13 10° S
Cosmos 1975 4.1 05:40:38 10° NNW 05:42:58 24° WNW 05:42:58 24° WNW
IRAS Rocket 4.2 05:40:41 10° NNE 05:46:14 81° WNW 05:51:48 10° SSW
SL-16 R/B 4.0 05:46:02 14° WNW 05:47:41 15° NW 05:50:57 10° N
Resurs 1-4 Rocket 4.0 05:46:58 10° NW 05:48:52 12° NW 05:49:17 12° WNW
CZ-2D R/B 4.1 05:49:12 10° NNW 05:51:24 12° NW 05:52:08 12° WNW
Okean O Rocket 2.0 05:47:26 10° N 05:51:39 43° WNW 05:54:02 23° SW
CZ-2C R/B 3.7 05:47:52 10° S 05:52:21 55° W 05:56:48 10° NNW
SL-8 R/B 4.0 05:48:52 16° WNW 05:52:40 66° NNE 05:57:25 10° ESE
Cosmos 2219 Rocket 2.2 05:48:29 11° SSW 05:53:52 88° ESE 05:59:29 10° NNE
COSMOS 2428 2.9 05:51:57 21° SW 05:55:39 54° WNW 06:01:15 10° NNE
COSMO-SKYMED 1 4.5 05:52:47 10° SE 05:56:40 33° ENE 06:00:35 10° N
Cosmos 1937 Rocket 3.9 05:51:45 10° NNW 05:57:06 70° ENE 06:02:21 10° SSE
Meteor 2-9 Rocket 4.2 05:52:08 10° N 05:57:52 89° E 06:03:23 10° S
Cosmos 1025 Rocket 3.2 05:54:30 10° S 05:58:53 78° E 06:03:17 10° N
Cosmos 1844 Rocket 2.8 05:54:43 10° NW 06:00:06 49° WSW 06:05:25 10° S
Lacrosse 4 Rocket 3.5 06:03:25 12° SSW 06:03:25 12° SSW 06:03:52 10° SSW
NOSS 0 Rocket 4.2 05:55:03 10° SSW 06:01:11 71° ESE 06:07:20 10° NNE
Meteor 1-23 Rocket 4.4 05:56:17 10° S 06:02:05 78° E 06:07:52 10° NNE
Cosmos 1437 3.7 06:00:37 10° S 06:03:47 51° E 06:07:00 10° NNE
Okean-O 2.8 06:01:01 10° NNE 06:05:28 74° ESE 06:09:54 10° S
DELTA 2 R/B (1) 3.8 06:02:43 20° WSW 06:06:32 58° S 06:11:58 10° E
Cosmos 1892 Rocket 4.5 06:05:24 10° S 06:09:35 51° E 06:13:50 10° NNE
Cosmos 2360 Rocket 3.6 06:09:38 15° W 06:12:29 21° NW 06:16:45 10° N
USA 116 4.0 06:08:35 10° S 06:12:49 66° W 06:17:37 10° NNW
Cosmos 2285 Rocket 4.0 06:06:54 10° SSW 06:13:21 83° WNW 06:19:50 10° NNE
ADEOS II 2.6 06:08:39 10° N 06:13:31 39° WNW 06:18:21 10° SW
CZ-4C R/B 4.4 06:07:45 10° NNW 06:14:05 36° NE 06:21:05 10° ESE
Cosmos 2278 Rocket 2.2 06:10:04 10° NNW 06:15:47 86° WSW 06:21:27 10° SSE
Cosmos 2298 Rocket 4.0 06:11:11 10° NNW 06:16:29 66° WSW 06:21:45 10° S
Cosmos 1814 Rocket 4.0 06:15:01 10° SSW 06:20:13 89° WNW 06:25:24 10° NNE
Cosmos 1959 Rocket 4.4 06:14:05 10° N 06:20:13 85° W 06:26:21 10° S
Cosmos 2237 Rocket 2.3 06:16:06 10° SSW 06:21:47 87° ESE 06:27:32 10° NNE
Cosmos 1441 Rocket 4.4 06:19:09 10° S 06:22:58 49° E 06:26:50 10° NNE
Aureole 2 Rocket 2.3 06:21:40 10° SSW 06:25:17 77° WNW 06:28:38 10° NNE
Meteor 1-15 Rocket 4.3 06:20:08 10° NNW 06:26:02 74° W 06:31:56 10° S
Cosmos 1515 4.4 06:24:00 10° S 06:27:48 60° E 06:31:37 10° NNE
Meteor 2-4 Rocket 3.9 06:22:43 10° SSW 06:28:08 51° WNW 06:33:27 10° N
Cosmos 1666 3.6 06:25:13 10° NNW 06:28:33 28° W 06:31:53 10° SSW
Cosmos 405 Rocket 2.8 06:25:08 10° SSW 06:29:09 63° W 06:33:10 10° N
Cosmos 371 Rocket 4.0 06:24:33 10° S 06:29:18 59° ESE 06:34:07 10° NNE
ATLAS 5 CENTAUR R/B 2.4 06:23:27 10° NW 06:29:25 68° WSW 06:35:54 10° SSE
Cosmos 2297 4.4 06:25:12 10° NNW 06:30:54 60° ENE 06:36:33 10° SE
USA 215 3.9 06:26:45 10° S 06:32:34 33° SW 06:38:24 10° WNW
Okean 2 3.4 06:28:46 10° SSW 06:32:53 60° W 06:37:02 10° N
Cosmos 332 Rocket 3.9 06:28:05 10° SSW 06:32:59 84° ESE 06:37:54 10° NNE
Cosmos 2366 rocket 4.0 06:27:18 10° N 06:33:40 76° W 06:40:00 10° S
Cosmos 1743 4.4 06:33:40 10° NW 06:35:49 14° W 06:37:57 10° WSW
CZ-3A R/B -0.3 06:35:49 15° WSW 06:36:44 44° NNW 06:38:55 10° NE
Cosmos 1346 3.9 06:34:57 10° S 06:37:42 51° E 06:40:30 10° NNE
ERBS 4.2 06:35:22 10° NNW 06:38:31 30° NNE 06:41:39 10° E
Cosmos 2333 Rocket 2.5 06:37:52 10° SW 06:43:24 50° WNW 06:48:59 10° NNE
Cosmos 2058 Rocket 3.1 06:39:22 10° N 06:43:52 77° W 06:48:17 10° S
Cosmos 1867 3.9 06:39:21 10° NW 06:44:30 43° WSW 06:49:35 10° S
SKYMED 2 3.5 06:40:19 10° S 06:44:39 76° W 06:49:00 10° NNW
Meteor 1-31 Rocket 3.5 06:41:41 10° N 06:45:08 33° WNW 06:48:34 10° SW
CZ-4 R/B 4.5 06:42:50 10° NE 06:45:29 17° E 06:48:07 10° SE
USA 229 DEB 4.0 06:39:40 10° SW 06:46:22 55° NW 06:53:13 10° NNE
USA 229 4.0 06:39:46 10° SW 06:46:28 55° NW 06:53:19 10° NNE
